Location: Antioch Baptist Church
(32.6696°N, 85.7327°W)
Time: 11:39:56
(UTC+00:00)

CBERS-1 - Pass Details

Date: 14 July 2020
Orbit: 770 x 777 km, 98.6° (Epoch: 08 August)

Event Time Altitude Azimuth Distance (km) Brightness Sun altitude
Rises 07:37:08 0° 16° (NNE) 3,259 8.4 -29.9°
Reaches altitude 10° 07:39:29 10° 20° (NNE) 2,327 7.4 -29.7°
Enters shadow 07:44:09 62° 74° (ENE) 869 4.3 -29.2°
